TimeCDT,TemperatureF,Dew PointF,Humidity,Sea Level PressureIn,VisibilityMPH,Wind Direction,Wind SpeedMPH,Gust SpeedMPH,PrecipitationIn,Events,Conditions,WindDirDegrees,DateUTC
12:56 AM,77.0,71.1,82,30.02,10.0,Calm,Calm,-,N/A,,Mostly Cloudy,0,2012-10-15 05:56:00
1:56 AM,75.0,70.0,84,30.01,10.0,SSW,3.5,-,N/A,,Clear,200,2012-10-15 06:56:00
2:56 AM,75.0,70.0,84,30.01,10.0,Calm,Calm,-,N/A,,Clear,0,2012-10-15 07:56:00
3:56 AM,73.9,70.0,87,30.01,10.0,Calm,Calm,-,N/A,,Overcast,0,2012-10-15 08:56:00
4:56 AM,73.0,69.1,87,30.00,10.0,NE,3.5,-,N/A,,Scattered Clouds,50,2012-10-15 09:56:00
5:56 AM,73.0,68.0,84,30.01,10.0,NNE,5.8,-,N/A,,Mostly Cloudy,30,2012-10-15 10:56:00
6:56 AM,73.9,70.0,87,30.01,10.0,NNE,3.5,-,N/A,,Mostly Cloudy,30,2012-10-15 11:56:00
7:56 AM,73.9,70.0,87,30.02,8.0,NE,3.5,-,N/A,,Overcast,50,2012-10-15 12:56:00
8:56 AM,78.1,72.0,81,30.04,9.0,NNE,4.6,-,N/A,,Mostly Cloudy,30,2012-10-15 13:56:00
9:56 AM,80.1,71.1,74,30.06,10.0,NNE,6.9,-,N/A,,Overcast,30,2012-10-15 14:56:00
10:56 AM,82.0,71.1,69,30.06,10.0,NE,4.6,-,N/A,,Overcast,50,2012-10-15 15:56:00
11:56 AM,84.0,69.1,61,30.05,10.0,NE,5.8,-,N/A,,Overcast,40,2012-10-15 16:56:00
12:56 PM,86.0,66.9,53,30.02,10.0,Calm,Calm,-,N/A,,Overcast,0,2012-10-15 17:56:00
1:56 PM,87.1,66.0,49,29.98,10.0,Calm,Calm,-,N/A,,Mostly Cloudy,0,2012-10-15 18:56:00
2:56 PM,90.0,66.0,45,29.94,10.0,NNE,8.1,-,N/A,,Mostly Cloudy,30,2012-10-15 19:56:00
3:56 PM,88.0,63.0,43,29.93,10.0,Variable,6.9,-,N/A,,Mostly Cloudy,0,2012-10-15 20:56:00
4:56 PM,88.0,63.0,43,29.92,10.0,NE,11.5,-,N/A,,Mostly Cloudy,50,2012-10-15 21:56:00
5:56 PM,84.9,60.1,43,29.93,10.0,ENE,11.5,-,N/A,,Mostly Cloudy,70,2012-10-15 22:56:00
6:56 PM,82.0,62.1,51,29.94,10.0,ENE,11.5,-,N/A,,Mostly Cloudy,70,2012-10-15 23:56:00
7:56 PM,79.0,64.9,62,29.96,10.0,East,6.9,-,N/A,,Overcast,90,2012-10-16 00:56:00
8:56 PM,78.1,66.0,66,29.97,10.0,East,8.1,-,N/A,,Overcast,100,2012-10-16 01:56:00
9:56 PM,77.0,66.9,71,29.98,10.0,East,5.8,-,N/A,,Overcast,100,2012-10-16 02:56:00
10:56 PM,75.0,66.9,76,29.97,10.0,East,4.6,-,N/A,,Mostly Cloudy,100,2012-10-16 03:56:00
11:56 PM,75.9,69.1,79,29.96,10.0,ENE,5.8,-,N/A,,Mostly Cloudy,70,2012-10-16 04:56:00